Hourly Data Report for September 24, 2019

SAINT JOHN A
NEW BRUNSWICK
Current Station Operator: NAVCAN

45°18'58.000" N
65°53'24.000" W
108.80 m
8104901
71609
YSJ

Download Data

Hourly Data (September 2019)
Hourly Data Report for September 24, 2019
TIME
LST
Temp Definition
°C
Dew Point Definition
°C
Rel Hum Definition
%
Precip. Amount Definition
mm

Wind Dir Definition
10's deg

Wind Spd Definition
km/h
Visibility Definition
km
Stn Press Definition
kPa
Hmdx Definition


Wind Chill Definition


Weather Definition


00:00 14.4 14.4 100   11 4 8.1 99.22     Rain Showers, Fog
01:00 14.2 14.2 100   14 7 1.6 99.19     Fog
02:00 14.8 14.8 100   16 13 1.6 99.11     Rain Showers, Fog
03:00 15.3 15.3 100   18 11 1.2 99.09     Rain Showers, Fog
04:00 15.8 15.8 100   19 14 0.6 99.12     Fog
05:00 16.1 16.1 100   16 23 1.0 99.01     Fog
06:00 15.8 15.8 100   16 17 1.2 99.11     Rain Showers, Fog
07:00 15.8 15.8 100   16 14 0.8 99.09     Rain Showers, Fog
08:00 15.7 15.7 100   17 16 1.6 99.10     Fog
09:00 16.4 16.4 100   18 23 4.8 99.13     Rain Showers, Fog
10:00 15.9 15.9 100   18 27 1.6 99.12     Fog
11:00 15.8 15.8 100   19 21 0.8 99.11     Fog
12:00 15.5 15.5 100   19 25 0.8 99.13     Fog
13:00 14.8 14.8 100   19 23 0.8 99.11     Fog
14:00 14.6 14.6 100   18 16 1.2 99.13     Drizzle, Fog
15:00 14.8 14.8 100   20 16 1.2 99.17     Fog
16:00 14.7 14.7 100   19 12 0.4 99.17     Fog
17:00 14.7 14.7 100   20 9 0.4 99.19     Fog
18:00 14.6 14.6 100   18 7 0.8 99.19     Fog
19:00 14.5 14.5 100   36 2 1.2 99.20     Drizzle, Fog
20:00 14.4 14.4 100   25 4 0.8 99.28     Drizzle, Fog
21:00 14.2 14.2 100   36 2 2.4 99.22     Drizzle, Fog
22:00 13.9 13.9 100   22 5 1.6 99.20     Drizzle, Fog
23:00 13.9 13.9 100   2 3 1.6 99.19     Drizzle, Fog

Notes on Data Quality.

Legend

  • E = Estimated
  • M = Missing
  • NA = Not Available*
  • [empty] = Indicates an unobserved value
Date modified: